This demonstration page uses our WeatherBlox Daily Observations layout. Learn more.

Left ArrowRight Arrow

34.74481, -87.66753

Hourly Observations for December 23, 2019

Temp ( °F °C ) Dew Point ( °F °C ) Humidity (%) Winds ( mph kmh ) Pressure ( in mb ) Visibility ( mi km ) Precip ( " mm )
12:53 am 00:53 Cloudy 54 12.2 50 10 87 87 NE 8 13 29.93 1014 10 16 0.00 0.00
1:27 am 01:27 Cloudy 54 12.2 50 10 87 87 ENE 9 15 29.93 1014 10 16 0.00 0.00
1:53 am 01:53 Cloudy 54 12.2 50 10 87 87 NE 8 13 29.93 1013 10 16 0.00 0.00
2:53 am 02:53 Cloudy with Light Rain 54 12.2 50 10 87 87 N 7 11 29.93 1013 5 8 0.01 0.25
3:22 am 03:22 Cloudy with Rain 53 11.7 50 10 89 89 N 6 9 29.93 1014 3 4 0.05 1.27
3:37 am 03:37 Cloudy with Light Rain 53 11.7 51 10.6 93 93 VRB 6 9 29.94 1014 3 4 0.07 1.78
3:53 am 03:53 Cloudy with Light Rain 53 11.7 51 10.6 93 93 NNE 10 17 29.93 1014 3 5 0.09 2.29
4:04 am 04:04 Cloudy with Light Rain 53 11.7 51 10.6 93 93 NNE 9 15 29.94 1014 5 8 0.00 0.00
4:13 am 04:13 Cloudy with Mist and Fog 53 11.7 51 10.6 93 93 NNE 10 17 29.95 1014 6 10 0.00 0.00
4:44 am 04:44 Cloudy with Mist and Fog 53 11.7 50 10 89 89 NNE 7 11 29.96 1015 4 6 0.00 0.00
4:53 am 04:53 Cloudy with Mist and Fog 53 11.7 50 10 89 89 N 6 9 29.96 1014 3 5 0.01 0.25
5:17 am 05:17 Cloudy with Light Rain 52 11.1 49 9.4 89 89 N 8 13 29.98 1015 5 8 0.00 0.00
5:48 am 05:48 Cloudy 52 11 48 9 88 88 N 9 15 29.99 1015 7 11 0.01 0.25
5:53 am 05:53 Cloudy with Mist and Fog 52 11.1 49 9.4 89 89 N 8 13 29.98 1015 6 10 0.01 0.25
6:20 am 06:20 Cloudy with Light Rain 51 10.6 49 9.4 92 92 N 8 13 29.99 1015 5 8 0.01 0.25
6:32 am 06:32 Cloudy 51 10.6 48 8.9 89 89 NNE 12 19 30.00 1016 8 13 0.01 0.25
6:53 am 06:53 Cloudy 51 10.6 48 8.9 89 89 NNE 10 17 29.99 1016 10 16 0.01 0.25
7:02 am 07:02 Cloudy 51 10.6 48 8.9 89 89 N 9 15 30.00 1016 10 16 0.00 0.00
7:53 am 07:53 Cloudy 51 10.6 48 8.9 89 89 NNE 12 19 30.00 1016 9 14 0.00 0.00
8:04 am 08:04 Cloudy 51 10.6 48 8.9 89 89 N 8 13 30.01 1016 7 11 0.00 0.00
8:53 am 08:53 Cloudy 53 11.7 50 10 89 89 NNE 6 9 30.00 1016 10 16 0.00 0.00
9:05 am 09:05 Cloudy with Light Rain 53 11.7 50 10 89 89 VRB 3 6 30.00 1016 5 8 0.00 0.00
9:20 am 09:20 Cloudy 53 11.7 50 10 89 89 NNW 8 13 30.01 1016 9 14 0.00 0.00
9:53 am 09:53 Cloudy 55 12.8 51 10.6 87 87 N 6 9 30.01 1016 10 16 0.00 0.00
10:05 am 10:05 Cloudy 55 12.8 51 10.6 87 87 N 10 17 30.01 1016 10 16 0.00 0.00
10:26 am 10:26 Cloudy 56 13.3 51 10.6 84 84 NNE 10 17 30.01 1016 10 16 0.00 0.00
10:53 am 10:53 Cloudy 57 13.9 52 11.1 83 83 NNE 6 9 29.99 1016 9 14 0.00 0.00
12:30 pm 12:30 Cloudy 59 15 53 11.7 81 81 N 7 11 29.98 1015 10 16 0.01 0.25
12:53 pm 12:53 Cloudy with Haze 59 15 53 11.7 81 81 NNE 6 9 29.95 1014 4 6 0.01 0.25
1:53 pm 13:53 Mostly Cloudy 63 17.2 52 11.1 68 68 NNW 6 9 29.94 1014 10 16 0.00 0.00
2:53 pm 14:53 Partly Cloudy 66 18.9 53 11.7 63 63 N 6 9 29.94 1014 10 16 0.00 0.00
3:53 pm 15:53 Cloudy 65 18.3 52 11.1 63 63 NNE 7 11 29.96 1015 10 16 0.00 0.00
4:53 pm 16:53 Cloudy 64 17.8 50 10 60 60 N 5 7 29.97 1015 10 16 0.00 0.00
10:53 pm 22:53 Clear 56 13.3 43 6.1 62 62 NNE 8 13 30.01 1016 10 16 0.00 0.00
11:53 pm 23:53 Clear 54 12.2 42 5.6 64 64 NNE 6 9 30.01 1016 10 16 0.00 0.00

Powered by AerisWeather